Tracking 17884 objects as of 4-December-2016
HD Live streaming from Space Station
objects crossing your sky now

SL-8 DEB

Track SL-8 DEB now!
10-day predictions


NORAD ID: 18545
Int'l Code: 1986-100C
Perigee: 882.7 km
Apogee: 904.0 km
Inclination: 82.9 °
Period: 102.7 minutes
Semi major axis: 7264 km
RCS: 0.0131 m2 (small)
Launch date: December 17, 1986
Source: Commonwealth of Independent States (former USSR) (CIS)
Launch site: PLESETSK MISSILE AND SPACE COMPLEX (PKMTR)

Note: This is SATELLITE DEBRIS
Your satellite tracking list
Your tracking list is empty





NASA's NSSDC Master Catalog

Two Line Element Set (TLE):
1 18545U 86100C   16339.42445252  .00000540  00000-0  34212-3 0  9992
2 18545  82.9262 332.0475 0014662 343.1865 143.7758 14.02184356516660
Source of the keplerian elements: AFSPC